This demonstration page uses our WeatherBlox Daily Observations layout. Learn more.

Left ArrowRight Arrow

41.55636, -103.73856

Hourly Observations for December 29, 2021

Temp ( °F °C ) Dew Point ( °F °C ) Humidity (%) Winds ( mph kmh ) Pressure ( in mb ) Visibility ( mi km ) Precip ( " mm )
12:58 am 00:58 Mostly Cloudy 23 -5.2 0 -17.9 37 37 SSW 30 48 29.67 1005 10 16 0.00 0.00
1:58 am 01:58 Mostly Cloudy 23 -5 1 -17.3 38 38 SSW 28 44 29.66 1005 10 16 0.00 0.00
2:58 am 02:58 Mostly Cloudy 22 -5.5 1 -17.2 40 40 SSW 24 39 29.68 1005 10 16 0.00 0.00
3:58 am 03:58 Cloudy 22 -5.8 1 -17.4 40 40 WNW 10 17 29.76 1008 10 16 0.00 0.00
4:58 am 04:58 Mostly Cloudy 19 -7.1 2 -16.9 46 46 SSW 8 13 29.77 1008 10 16 0.00 0.00
5:58 am 05:58 Mostly Cloudy 20 -6.8 1 -17 44 44 SW 8 13 29.77 1008 10 16 0.00 0.00
6:58 am 06:58 Mostly Cloudy 19 -7.5 3 -16.2 50 50 W 9 15 29.78 1009 10 16 0.00 0.00
7:58 am 07:58 Mostly Sunny 17 -8.4 3 -15.9 55 55 Calm 29.82 1010 10 16 0.00 0.00
8:58 am 08:58 Mostly Cloudy 22 -5.3 5 -15.1 46 46 W 3 6 29.81 1010 10 16 0.00 0.00
9:58 am 09:58 Partly Cloudy 25 -3.7 2 -16.6 36 36 WNW 16 26 29.82 1010 10 16 0.00 0.00
10:58 am 10:58 Sunny 29 -1.9 -1 -18.2 28 28 NW 24 39 29.80 1009 10 16 0.00 0.00
11:58 am 11:58 Mostly Sunny 29 -1.9 0 -17.8 29 29 NW 23 37 29.80 1009 10 16 0.00 0.00
12:58 pm 12:58 Sunny 29 -1.4 1 -17.5 28 28 NW 20 31 29.76 1008 10 16 0.00 0.00
1:58 pm 13:58 Sunny 31 -0.8 1 -17 28 28 NW 17 28 29.76 1008 10 16 0.00 0.00
2:58 pm 14:58 Sunny 30 -1.1 2 -16.8 30 30 N 9 15 29.78 1008 10 16 0.00 0.00
3:58 pm 15:58 Partly Cloudy 28 -2.4 2 -16.4 34 34 NNW 6 9 29.79 1009 10 16 0.00 0.00
4:58 pm 16:58 Mostly Cloudy 27 -2.6 1 -17 32 32 Calm 29.81 1010 10 16 0.00 0.00
5:58 pm 17:58 Clear 21 -6 2 -16.8 43 43 S 7 11 29.83 1010 10 16 0.00 0.00
6:58 pm 18:58 Clear 21 -6.2 3 -16 46 46 SSW 6 9 29.85 1011 10 16 0.00 0.00
7:58 pm 19:58 Clear 18 -7.8 3 -16.3 51 51 S 12 19 29.86 1011 10 16 0.00 0.00
8:58 pm 20:58 Mostly Clear 23 -4.9 4 -15.8 43 43 SSW 16 26 29.81 1010 10 16 0.00 0.00
9:58 pm 21:58 Mostly Clear 22 -5.7 3 -16 44 44 SSW 22 35 29.79 1009 10 16 0.00 0.00
10:58 pm 22:58 Clear 20 -6.7 3 -16.1 48 48 SSW 25 41 29.75 1007 10 16 0.00 0.00
11:58 pm 23:58 Mostly Cloudy 20 -6.5 3 -16.1 47 47 SSW 25 41 29.72 1006 10 16 0.00 0.00

Powered by AerisWeather